• In Netherlands
  • List of Countries
  • For 7 days
  • Water Temperature
  • Satellite Maps
  • Weather Map
  • Weather Widgets
  • user-avatar
    Login

    Hourly Weather Etchmiadzin

    Today, 26 September, Wednesday

    Time Temperature Precipitation Wind Pressure Humidity
    00:00 +21°C° 0.2 mm 1 mps 686 mmHg 63%
    01:00 +20°C° 0.3 mm 1 mps 686 mmHg 66%
    02:00 +20°C° 0.3 mm 1 mps 686 mmHg 69%
    03:00 +18°C° 0 mm 2 mps 686 mmHg 70%
    04:00 +18°C° 0.4 mm 2 mps 686 mmHg 72%
    05:00 +18°C° 0.4 mm 2 mps 686 mmHg 74%
    06:00 +17°C° 0.4 mm 2 mps 686 mmHg 76%
    07:00 +19°C° 0.2 mm 2 mps 686 mmHg 67%
    08:00 +21°C° 0.2 mm 2 mps 687 mmHg 58%
    09:00 +24°C° 0.2 mm 2 mps 687 mmHg 49%
    10:00 +25°C° 0.3 mm 2 mps 687 mmHg 45%
    11:00 +26°C° 0.3 mm 2 mps 687 mmHg 41%
    12:00 +27°C° 0.3 mm 2 mps 687 mmHg 37%
    13:00 +28°C° 0.3 mm 2 mps 687 mmHg 36%
    14:00 +28°C° 0.3 mm 2 mps 687 mmHg 36%
    15:00 +28°C° 0.3 mm 2 mps 687 mmHg 36%
    16:00 +27°C° 0.2 mm 2 mps 687 mmHg 41%
    17:00 +25°C° 0.2 mm 2 mps 687 mmHg 47%
    18:00 +24°C° 0.2 mm 3 mps 687 mmHg 52%
    19:00 +22°C° 0.2 mm 3 mps 687 mmHg 57%
    20:00 +21°C° 0.2 mm 3 mps 687 mmHg 61%
    21:00 +20°C° 0.2 mm 3 mps 688 mmHg 66%
    22:00 +19°C° 0.2 mm 3 mps 688 mmHg 68%
    23:00 +19°C° 0.2 mm 2 mps 688 mmHg 70%

    Tomorrow, 27 September, Thursday

    Time Temperature Precipitation Wind Pressure Humidity
    00:00 +18°C° 0.2 mm 2 mps 688 mmHg 73%
    01:00 +18°C° 0 mm 2 mps 688 mmHg 74%
    02:00 +17°C° 0 mm 2 mps 688 mmHg 76%
    03:00 +17°C° 0 mm 2 mps 688 mmHg 77%
    04:00 +17°C° 0 mm 2 mps 688 mmHg 78%
    05:00 +16°C° 0 mm 2 mps 689 mmHg 79%
    06:00 +16°C° 0 mm 2 mps 689 mmHg 80%
    07:00 +19°C° 0 mm 1 mps 689 mmHg 72%
    08:00 +21°C° 0 mm 1 mps 690 mmHg 63%
    09:00 +22°C° 0 mm 1 mps 690 mmHg 55%
    10:00 +24°C° 0 mm 1 mps 690 mmHg 51%
    11:00 +25°C° 0 mm 1 mps 690 mmHg 46%
    12:00 +26°C° 0 mm 2 mps 690 mmHg 42%
    13:00 +26°C° 0 mm 2 mps 690 mmHg 41%
    14:00 +27°C° 0 mm 1 mps 690 mmHg 39%
    15:00 +27°C° 0 mm 1 mps 689 mmHg 38%
    16:00 +25°C° 0 mm 1 mps 689 mmHg 43%
    17:00 +24°C° 0 mm 1 mps 689 mmHg 48%
    18:00 +21°C° 0 mm 2 mps 689 mmHg 54%
    19:00 +21°C° 0 mm 2 mps 689 mmHg 58%
    20:00 +20°C° 0 mm 2 mps 690 mmHg 62%
    21:00 +20°C° 0 mm 2 mps 690 mmHg 66%
    22:00 +19°C° 0 mm 2 mps 690 mmHg 68%
    23:00 +19°C° 0 mm 2 mps 690 mmHg 71%

    Day after tomorrow, 28 September, Friday

    Time Temperature Precipitation Wind Pressure Humidity
    00:00 +18°C° 0 mm 2 mps 690 mmHg 73%
    01:00 +19°C° 0 mm 1 mps 690 mmHg 74%
    02:00 +18°C° 0 mm 1 mps 690 mmHg 75%
    03:00 +18°C° 0 mm 1 mps 690 mmHg 77%
    04:00 +16°C° 0 mm 1 mps 690 mmHg 78%
    05:00 +16°C° 0 mm 1 mps 690 mmHg 79%
    06:00 +16°C° 0 mm 1 mps 690 mmHg 79%
    07:00 +19°C° 0 mm 1 mps 690 mmHg 70%
    08:00 +21°C° 0 mm 1 mps 690 mmHg 61%
    09:00 +23°C° 0 mm 1 mps 691 mmHg 52%
    10:00 +24°C° 0 mm 2 mps 691 mmHg 47%
    11:00 +25°C° 0 mm 2 mps 690 mmHg 43%
    12:00 +27°C° 0 mm 2 mps 690 mmHg 39%
    13:00 +27°C° 0 mm 2 mps 690 mmHg 37%
    14:00 +27°C° 0 mm 2 mps 689 mmHg 36%
    15:00 +28°C° 0 mm 3 mps 689 mmHg 34%
    16:00 +26°C° 0 mm 2 mps 689 mmHg 40%
    17:00 +24°C° 0 mm 2 mps 688 mmHg 45%
    18:00 +23°C° 0 mm 1 mps 688 mmHg 51%
    19:00 +21°C° 0 mm 2 mps 688 mmHg 55%
    20:00 +21°C° 0 mm 2 mps 688 mmHg 60%
    21:00 +20°C° 0 mm 2 mps 689 mmHg 64%
    22:00 +20°C° 0 mm 2 mps 689 mmHg 67%
    23:00 +19°C° 0 mm 2 mps 688 mmHg 69%

    29 September, Saturday

    Time Temperature Precipitation Wind Pressure Humidity
    00:00 +19°C° 0 mm 2 mps 688 mmHg 71%
    01:00 +19°C° 0 mm 1 mps 688 mmHg 72%
    02:00 +19°C° 0 mm 1 mps 688 mmHg 73%
    03:00 +18°C° 0 mm 1 mps 688 mmHg 74%
    04:00 +18°C° 0 mm 1 mps 687 mmHg 74%
    05:00 +18°C° 0 mm 1 mps 687 mmHg 74%
    06:00 +15°C° 0 mm 0 mps 687 mmHg 74%
    07:00 +20°C° 0 mm 1 mps 687 mmHg 64%
    08:00 +22°C° 0 mm 1 mps 688 mmHg 55%
    09:00 +24°C° 0 mm 1 mps 688 mmHg 45%
    10:00 +26°C° 0 mm 2 mps 688 mmHg 41%
    11:00 +27°C° 0 mm 2 mps 688 mmHg 36%
    12:00 +28°C° 0 mm 2 mps 687 mmHg 31%
    13:00 +29°C° 0 mm 2 mps 687 mmHg 30%
    14:00 +29°C° 0 mm 2 mps 686 mmHg 28%
    15:00 +29°C° 0 mm 2 mps 686 mmHg 27%
    16:00 +27°C° 0 mm 2 mps 686 mmHg 31%
    17:00 +25°C° 0 mm 2 mps 686 mmHg 35%
    18:00 +24°C° 0 mm 1 mps 685 mmHg 38%
    19:00 +23°C° 0 mm 1 mps 686 mmHg 39%
    20:00 +22°C° 0 mm 1 mps 686 mmHg 40%
    21:00 +22°C° 0 mm 1 mps 686 mmHg 41%
    22:00 +21°C° 0 mm 1 mps 686 mmHg 40%
    23:00 +21°C° 0 mm 1 mps 686 mmHg 39%

    30 September, Sunday

    Time Temperature Precipitation Wind Pressure Humidity
    00:00 +21°C° 0 mm 1 mps 686 mmHg 38%
    01:00 +20°C° 0 mm 1 mps 686 mmHg 38%
    02:00 +20°C° 0 mm 1 mps 686 mmHg 37%
    03:00 +20°C° 0 mm 1 mps 686 mmHg 37%
    04:00 +19°C° 0 mm 1 mps 686 mmHg 38%
    05:00 +19°C° 0 mm 1 mps 686 mmHg 39%
    06:00 +19°C° 0 mm 1 mps 686 mmHg 40%
    07:00 +21°C° 0 mm 1 mps 686 mmHg 36%
    08:00 +24°C° 0 mm 2 mps 687 mmHg 32%
    09:00 +26°C° 0 mm 2 mps 687 mmHg 28%
    10:00 +27°C° 0 mm 2 mps 687 mmHg 26%
    11:00 +28°C° 0 mm 2 mps 687 mmHg 24%
    12:00 +29°C° 0 mm 3 mps 687 mmHg 22%
    13:00 +29°C° 0 mm 3 mps 686 mmHg 22%
    14:00 +30°C° 0 mm 3 mps 686 mmHg 21%
    15:00 +30°C° 0 mm 3 mps 686 mmHg 21%
    16:00 +28°C° 0 mm 2 mps 685 mmHg 24%
    17:00 +26°C° 0 mm 2 mps 685 mmHg 27%
    18:00 +24°C° 0 mm 2 mps 685 mmHg 30%
    19:00 +24°C° 0 mm 1 mps 686 mmHg 31%
    20:00 +23°C° 0 mm 1 mps 686 mmHg 32%
    21:00 +23°C° 0 mm 1 mps 687 mmHg 33%
    22:00 +22°C° 0 mm 1 mps 687 mmHg 34%
    23:00 +22°C° 0 mm 1 mps 687 mmHg 35%

    1 October, Monday

    Time Temperature Precipitation Wind Pressure Humidity
    00:00 +22°C° 0 mm 1 mps 687 mmHg 36%
    01:00 +21°C° 0 mm 1 mps 687 mmHg 36%
    02:00 +21°C° 0 mm 1 mps 687 mmHg 37%
    03:00 +20°C° 0 mm 1 mps 687 mmHg 38%
    04:00 +20°C° 0 mm 1 mps 687 mmHg 37%
    05:00 +20°C° 0 mm 1 mps 687 mmHg 37%
    06:00 +19°C° 0 mm 1 mps 687 mmHg 37%
    07:00 +22°C° 0 mm 1 mps 687 mmHg 35%
    08:00 +24°C° 0 mm 2 mps 688 mmHg 32%
    09:00 +26°C° 0 mm 2 mps 688 mmHg 29%
    10:00 +27°C° 0 mm 2 mps 688 mmHg 29%
    11:00 +28°C° 0 mm 3 mps 688 mmHg 30%
    12:00 +28°C° 0 mm 3 mps 688 mmHg 30%
    13:00 +28°C° 0.1 mm 3 mps 688 mmHg 31%
    14:00 +29°C° 0.1 mm 3 mps 688 mmHg 32%
    15:00 +29°C° 0.1 mm 3 mps 688 mmHg 32%
    16:00 +27°C° 0.3 mm 3 mps 688 mmHg 38%
    17:00 +25°C° 0.3 mm 2 mps 688 mmHg 43%
    18:00 +24°C° 0.3 mm 2 mps 688 mmHg 48%
    19:00 +23°C° 0.3 mm 1 mps 688 mmHg 50%
    20:00 +23°C° 0.3 mm 1 mps 688 mmHg 52%
    21:00 +22°C° 0.3 mm 1 mps 688 mmHg 54%
    22:00 +22°C° 0.4 mm 1 mps 688 mmHg 56%
    23:00 +22°C° 0.4 mm 1 mps 689 mmHg 57%
    Show more